TimeCDT,TemperatureF,Dew PointF,Humidity,Sea Level PressureIn,VisibilityMPH,Wind Direction,Wind SpeedMPH,Gust SpeedMPH,PrecipitationIn,Events,Conditions,WindDirDegrees,DateUTC
12:53 AM,70.0,66.9,90,30.04,10.0,North,3.5,-,N/A,,Clear,10,2013-08-18 05:53:00
1:53 AM,68.0,64.9,90,30.04,8.0,North,6.9,-,N/A,,Clear,10,2013-08-18 06:53:00
2:53 AM,68.0,66.0,93,30.04,9.0,ESE,4.6,-,N/A,,Clear,110,2013-08-18 07:53:00
3:53 AM,68.0,66.0,93,30.04,9.0,ESE,4.6,-,N/A,,Clear,110,2013-08-18 08:53:00
4:53 AM,66.9,64.9,93,30.04,8.0,ESE,4.6,-,N/A,,Clear,110,2013-08-18 09:53:00
5:53 AM,66.9,64.9,93,30.06,8.0,Calm,Calm,-,N/A,,Clear,0,2013-08-18 10:53:00
6:53 AM,64.0,63.0,96,30.07,5.0,Calm,Calm,-,N/A,,Clear,0,2013-08-18 11:53:00
7:53 AM,70.0,66.9,90,30.09,7.0,ESE,6.9,-,N/A,,Clear,110,2013-08-18 12:53:00
8:53 AM,73.9,69.1,85,30.09,10.0,ESE,4.6,-,N/A,,Clear,120,2013-08-18 13:53:00
9:45 AM,77.0,69.8,78,30.08,10.0,ESE,6.9,-,N/A,,Mostly Cloudy,110,2013-08-18 14:45:00
9:53 AM,77.0,69.1,76,30.10,10.0,ESE,6.9,-,N/A,,Scattered Clouds,110,2013-08-18 14:53:00
10:53 AM,79.0,68.0,69,30.11,10.0,ENE,6.9,-,N/A,,Partly Cloudy,60,2013-08-18 15:53:00
11:53 AM,82.0,68.0,62,30.11,10.0,NE,5.8,-,N/A,,Partly Cloudy,50,2013-08-18 16:53:00
12:53 PM,82.9,68.0,60,30.09,8.0,NE,9.2,-,N/A,,Scattered Clouds,50,2013-08-18 17:53:00
1:53 PM,84.9,69.1,59,30.07,10.0,NE,8.1,-,N/A,,Scattered Clouds,40,2013-08-18 18:53:00
2:53 PM,86.0,66.9,53,30.06,10.0,NNE,9.2,-,N/A,,Partly Cloudy,30,2013-08-18 19:53:00
3:53 PM,87.1,66.9,51,30.04,10.0,NE,10.4,-,N/A,,Partly Cloudy,40,2013-08-18 20:53:00
4:53 PM,87.1,66.9,51,30.04,10.0,NE,11.5,-,N/A,,Scattered Clouds,40,2013-08-18 21:53:00
5:53 PM,86.0,66.0,51,30.02,10.0,NNE,10.4,-,N/A,,Clear,20,2013-08-18 22:53:00
6:53 PM,82.0,66.9,60,30.03,10.0,NNE,6.9,-,N/A,,Clear,20,2013-08-18 23:53:00
7:53 PM,77.0,66.9,71,30.03,10.0,North,5.8,-,N/A,,Clear,10,2013-08-19 00:53:00
8:53 PM,73.0,68.0,84,30.04,10.0,NNE,4.6,-,N/A,,Clear,30,2013-08-19 01:53:00
9:53 PM,73.0,68.0,84,30.06,10.0,NNE,5.8,-,N/A,,Clear,20,2013-08-19 02:53:00
10:53 PM,72.0,68.0,87,30.07,10.0,North,5.8,-,N/A,,Mostly Cloudy,350,2013-08-19 03:53:00
11:53 PM,70.0,68.0,93,30.07,10.0,NNE,4.6,-,N/A,,Clear,30,2013-08-19 04:53:00